Theta_e
287 287 287 286 286 286 286 285 285 285 284 284 284 284 283 283 283 282 282 281 281 280 280 280 280 280 280 279 279 279 279 278 278 278 278 278 277 277 277 276 276 276
287 286 287 286 285 285 285 285 285 284 284 284 284 283 283 283 282 282 281 281 281 280 280 280 280 279 279 279 278 278 278 278 277 279 277 277 277 277 277 277 276 276
286 286 286 285 285 285 284 284 284 284 284 283 283 283 283 283 282 282 281 281 280 280 280 279 279 279 279 278 278 278 277 277 277 278 278 277 277 277 276 276 276 276
286 286 286 285 285 284 284 283 283 283 282 282 282 282 282 282 282 281 281 281 280 279 279 279 279 278 278 278 278 277 277 277 277 277 277 276 276 276 276 276 276 276
286 286 286 285 285 284 283 283 282 282 282 282 281 281 281 281 281 280 280 280 279 279 278 278 278 278 278 278 277 277 277 276 276 276 276 275 275 276 275 276 275 275
286 286 286 285 285 283 282 283 283 282 282 281 281 281 281 281 280 280 280 279 279 279 278 278 278 278 278 277 277 277 276 276 275 275 275 274 274 275 275 275 274 274
285 285 285 285 284 283 283 282 282 282 281 281 280 280 280 280 280 280 279 279 278 278 278 277 277 277 277 277 276 275 275 275 274 274 274 273 273 273 274 274 274 273
285 284 284 284 283 283 283 282 282 281 281 280 280 280 280 280 280 279 279 279 278 278 278 277 277 277 277 276 275 275 274 275 274 274 273 273 273 272 273 273 273 272
285 284 283 283 283 283 282 282 281 281 280 280 280 279 279 280 279 279 279 278 278 277 277 277 277 276 276 275 275 274 274 274 274 273 273 273 272 272 272 272 271 271
284 284 283 283 282 283 282 282 281 280 280 280 279 279 279 279 279 278 278 278 277 277 276 276 276 275 275 275 275 274 274 273 273 273 273 272 272 271 271 271 270 270
284 283 282 282 282 282 282 281 280 280 279 279 279 278 279 278 278 278 277 277 277 276 276 275 275 275 274 274 274 274 273 273 273 272 272 272 271 271 272 270 270 269
284 283 282 282 282 282 282 281 280 279 279 279 279 278 278 278 277 277 277 277 276 276 275 275 275 274 274 274 273 273 273 272 272 271 271 271 270 270 270 270 270 269
284 283 283 283 282 282 282 280 279 279 279 278 278 278 277 277 277 276 276 276 276 275 275 274 274 274 273 273 273 272 272 271 271 270 270 270 270 270 270 270 270 270
284 284 283 283 282 281 281 280 279 278 278 278 278 277 277 277 276 276 275 275 275 274 274 274 273 273 273 272 272 272 271 271 270 270 270 270 270 270 271 271 271 270
284 283 283 282 281 280 279 279 278 278 278 277 277 277 277 276 276 276 275 274 274 273 273 273 273 273 272 272 271 271 271 270 270 270 270 269 270 270 270 270 270 270
283 282 281 281 280 279 279 279 278 277 277 277 276 276 276 276 275 275 274 274 273 273 272 273 272 272 274 277 276 272 271 270 270 270 270 270 270 270 270 270 271 271
282 281 281 280 280 279 278 278 277 277 276 276 276 275 275 274 274 274 273 273 273 272 272 272 272 273 277 279 279 277 272 271 270 270 270 270 270 270 270 271 272 272
282 281 280 279 279 278 277 277 276 276 275 275 275 274 274 274 274 274 274 273 273 273 272 272 272 276 280 280 280 279 276 271 270 270 270 270 271 271 271 272 272 273
281 280 279 278 278 277 277 276 275 275 275 274 274 274 274 273 274 274 273 273 273 272 272 272 272 278 281 281 281 280 278 273 270 270 270 271 271 272 272 273 273 273
280 279 278 278 277 276 275 275 275 275 275 275 275 274 274 274 274 273 273 273 273 272 272 272 271 277 281 282 281 281 279 275 270 270 271 272 273 273 273 273 273 273
280 279 278 277 277 276 275 275 275 275 275 275 275 274 274 274 273 273 273 273 272 272 272 271 271 278 281 282 282 282 280 276 271 272 273 273 274 274 274 274 273 272
279 278 278 277 276 276 275 275 275 275 275 275 274 274 274 274 274 273 272 272 272 271 271 270 270 278 281 282 282 282 282 275 273 273 273 274 274 274 274 273 272 272
279 278 277 276 276 275 275 275 275 275 275 275 274 274 273 273 272 272 272 271 271 270 270 269 269 277 281 282 282 282 281 275 274 273 273 273 273 273 272 272 271 271
279 278 278 277 276 276 276 276 276 276 275 274 273 273 273 272 272 271 270 270 270 270 270 269 269 276 281 281 281 282 279 273 273 273 273 272 272 272 271 270 271 274
279 279 278 277 276 276 276 276 275 275 274 273 273 273 272 271 270 270 269 270 270 270 273 270 269 275 281 281 281 281 278 274 273 272 271 271 270 269 270 269 270 273
280 279 279 278 277 276 276 276 275 274 272 272 272 272 271 270 269 269 268 268 269 268 270 269 269 272 277 281 280 281 279 274 273 271 270 270 270 269 268 269 271 272
Wind_Speed
14 12 13 12 13 12 12 13 12 13 12 11 12 12 12 10 11 13 12 11 10 10 9 9 8 8 7 7 7 6 6 7 6 6 6 7 7 7 7 5 4 3
16 14 11 11 10 10 11 12 12 13 13 12 10 9 9 10 11 12 12 12 11 11 10 9 9 9 9 8 8 8 7 7 7 4 6 7 6 7 6 6 4 4
14 14 15 15 15 14 13 10 11 11 11 11 9 9 10 10 11 11 11 12 12 11 11 10 9 9 9 9 9 8 8 8 8 6 7 7 7 7 6 5 4 3
16 17 16 15 13 13 11 10 10 10 9 10 12 10 10 9 11 13 12 12 11 11 10 10 10 9 9 9 9 8 8 8 7 7 6 5 5 5 5 4 3 3
17 15 14 14 12 10 10 12 13 12 12 11 8 9 10 10 10 11 11 11 11 11 11 11 10 10 10 10 10 9 8 7 6 6 6 6 5 5 4 5 4 3
12 14 14 13 12 12 12 14 13 12 12 10 12 10 11 11 11 12 12 12 11 12 12 11 12 11 11 10 9 8 8 7 6 6 6 6 5 5 4 5 4 4
16 15 15 13 12 12 13 13 11 11 12 11 9 12 12 13 13 13 12 12 12 12 13 13 13 12 10 9 8 8 7 7 7 7 7 6 7 6 5 6 5 4
15 12 12 12 14 13 14 13 12 12 11 10 13 12 13 14 14 12 12 13 12 12 11 11 11 11 10 9 10 10 9 7 8 9 8 8 7 7 6 5 5 5
13 11 13 14 15 13 14 13 12 11 11 13 12 11 11 13 13 13 13 13 12 11 11 11 11 11 10 10 10 11 11 9 8 8 9 9 8 8 7 6 6 5
14 14 13 14 16 15 15 13 11 11 11 12 12 11 13 11 12 13 13 13 13 12 11 10 10 9 9 9 10 10 10 10 9 8 8 8 8 8 8 7 7 6
15 14 14 15 15 13 15 13 13 12 12 14 12 12 12 12 11 11 13 13 13 13 12 11 11 10 10 10 9 8 10 10 10 9 8 8 8 8 8 7 7 6
16 14 16 17 17 15 16 15 13 13 13 12 13 14 13 12 13 12 13 14 12 12 12 11 10 10 10 11 10 9 9 8 8 8 8 8 7 7 7 7 7 6
15 17 18 17 16 15 12 12 13 13 14 14 13 14 14 13 13 13 11 13 12 11 12 11 11 10 10 10 9 9 9 9 9 8 8 7 7 7 6 6 6 6
17 17 16 15 13 11 11 12 12 12 13 12 13 14 15 15 15 14 11 10 11 11 11 11 11 10 9 9 9 10 10 9 9 9 9 8 7 7 8 8 8 7
15 12 11 11 12 13 13 13 14 13 13 13 13 13 12 13 13 13 13 12 10 11 11 10 11 11 10 11 12 11 10 11 10 10 10 9 8 8 8 8 7 7
12 11 12 12 13 14 15 14 14 13 13 13 13 13 13 12 13 12 13 14 14 12 12 11 11 10 13 21 17 13 12 10 9 9 10 9 9 8 8 8 8 7
11 13 12 14 14 13 11 13 14 13 13 13 12 12 14 13 13 14 13 13 15 15 15 13 11 11 22 23 23 22 14 11 11 10 9 9 9 9 8 8 8 8
13 12 12 13 12 13 14 13 12 13 13 14 13 14 13 12 14 15 15 14 13 14 14 14 12 16 25 24 24 23 18 11 10 10 10 9 9 9 8 8 9 8
11 12 13 12 13 13 12 12 14 14 14 14 16 15 12 15 16 14 14 14 14 16 15 13 12 21 25 25 24 23 23 16 10 10 10 10 9 10 10 9 9 8
11 12 12 12 11 11 12 13 14 16 15 13 12 12 14 14 13 15 14 15 15 15 13 12 13 19 25 24 24 24 23 17 10 11 10 10 11 11 10 10 10 8
12 12 13 12 12 13 13 14 15 13 14 13 14 15 16 16 16 15 14 13 12 12 12 12 11 20 23 24 24 24 23 16 9 9 9 9 10 10 10 10 10 8
14 13 13 12 13 13 14 15 15 16 16 13 12 11 10 9 9 11 13 14 12 12 11 11 10 21 23 23 24 24 25 11 10 9 9 8 9 9 10 8 7 6
13 14 14 14 14 15 16 16 16 15 13 11 12 12 13 12 12 12 10 12 12 12 11 9 9 18 24 23 23 24 18 8 9 8 7 7 8 9 6 5 4 5
12 13 14 15 15 17 18 16 13 10 12 12 14 14 13 12 10 9 9 10 13 13 12 11 10 15 24 24 23 24 14 9 8 8 7 6 5 5 3 3 5 12
10 12 13 14 16 16 14 14 14 13 10 9 9 9 10 9 9 10 9 9 10 11 14 12 10 14 24 23 24 24 15 8 8 8 7 6 5 4 4 3 5 8
7 9 10 12 12 10 9 10 8 9 10 11 9 8 9 9 9 9 12 10 9 10 11 10 11 9 15 24 23 24 20 10 7 9 9 8 7 6 5 4 5 6
Wind_Direction
198 197 200 197 203 201 193 193 196 196 198 195 198 195 194 188 174 179 176 170 172 171 171 170 166 163 159 154 152 148 154 158 155 158 152 143 141 142 146 151 152 156
202 198 200 200 203 200 200 196 195 195 196 197 197 188 186 178 181 177 174 171 169 172 168 169 169 164 160 158 158 155 157 159 162 169 155 150 152 143 150 154 155 153
198 199 200 200 202 200 199 193 194 198 194 195 186 185 183 180 175 176 174 171 170 169 171 169 166 166 163 161 160 160 163 163 167 172 161 160 152 147 152 145 137 148
203 203 202 204 200 198 190 185 195 193 189 184 194 182 174 177 175 175 173 171 169 170 170 168 168 165 164 163 161 165 168 172 170 164 158 147 141 133 134 130 129 120
204 204 205 204 201 192 182 192 194 193 191 191 170 172 171 172 176 176 174 174 170 169 168 170 167 168 166 167 168 166 169 167 166 159 149 136 134 128 134 128 132 139
207 207 205 201 197 189 191 197 196 190 187 179 184 167 176 171 176 179 177 174 175 170 170 169 170 171 172 170 166 167 160 157 163 154 146 140 135 128 132 134 135 139
206 202 202 198 195 195 197 198 193 188 186 183 158 182 171 174 177 179 177 175 173 176 174 173 172 173 173 166 164 158 159 157 159 155 146 144 138 136 138 139 144 145
207 201 197 193 198 196 200 196 191 186 180 166 182 179 175 176 176 175 175 173 174 177 179 177 175 171 167 163 162 162 163 162 164 159 154 147 143 147 145 148 148 146
202 197 195 197 197 199 201 195 189 180 174 179 179 177 178 178 175 172 173 171 173 176 177 179 176 171 170 167 168 167 166 166 165 161 156 153 155 156 154 150 150 157
201 200 193 197 200 201 199 192 183 180 175 179 178 172 176 179 172 171 168 171 171 173 177 177 174 172 169 173 170 167 164 164 163 163 158 157 155 154 154 158 159 162
203 196 197 199 202 198 198 187 185 177 176 178 172 175 177 169 172 169 170 171 174 173 173 175 177 172 171 170 169 168 167 164 164 160 157 153 151 153 156 156 163 167
201 195 200 201 200 197 194 188 182 177 176 177 173 173 170 174 170 174 174 174 172 171 171 173 172 174 173 171 169 165 164 164 157 152 149 149 151 154 154 159 163 165
200 201 202 201 198 197 190 182 180 178 175 176 174 171 169 172 176 173 177 172 169 165 169 169 170 172 172 170 167 166 164 160 154 150 147 146 152 150 150 159 164 169
206 206 201 197 192 185 181 181 176 176 179 172 168 172 175 175 173 173 169 167 166 166 166 164 167 170 170 169 168 168 166 160 158 152 150 151 151 159 169 175 179 178
209 203 194 187 184 180 177 178 180 177 174 171 175 174 174 174 170 167 162 163 161 163 162 165 170 175 174 172 169 172 168 163 159 157 156 157 159 167 175 178 181 185
201 192 189 185 181 183 184 179 175 174 173 173 175 173 169 168 168 168 167 165 164 166 167 171 177 178 182 180 177 169 167 164 159 160 159 159 161 166 177 182 187 190
189 192 184 186 187 182 176 174 175 172 171 171 171 170 170 169 168 168 171 171 170 170 173 178 181 183 184 182 180 175 165 164 162 161 161 161 166 169 173 180 187 193
191 185 184 187 177 182 178 176 167 168 172 173 171 172 174 168 172 176 172 171 173 176 179 180 182 185 185 184 181 177 171 163 161 161 163 165 167 171 173 177 185 189
184 183 186 181 184 177 171 166 170 172 174 174 180 177 165 175 180 171 176 175 176 178 183 182 171 185 185 184 182 177 172 164 164 162 164 167 171 175 178 181 182 184
183 182 184 184 174 168 167 172 175 182 181 178 169 168 176 177 175 179 176 179 181 181 179 181 182 188 187 185 182 177 172 163 163 163 166 172 174 178 182 182 184 183
183 183 182 176 174 171 173 179 182 179 176 177 177 178 178 180 179 179 181 178 178 178 178 181 186 191 189 186 182 177 171 161 163 165 170 175 177 181 183 183 180 171
183 182 178 174 173 175 178 182 182 182 180 177 174 178 180 174 179 179 177 178 175 173 173 182 186 196 190 187 183 180 174 161 166 170 171 172 177 179 179 173 171 178
183 178 178 176 177 178 184 184 182 183 179 172 173 177 176 180 180 178 174 170 170 174 175 177 182 196 190 185 183 180 176 148 162 164 169 168 176 177 173 169 174 186
182 179 180 179 179 187 187 187 181 175 176 173 176 174 179 179 168 164 166 172 173 177 177 173 182 193 188 186 182 184 169 154 160 163 165 163 162 167 161 174 202 212
183 182 184 183 188 190 183 179 178 176 166 162 172 170 172 160 162 165 165 172 179 177 179 178 177 189 186 185 183 184 170 152 159 160 164 170 164 163 172 188 214 229
192 191 189 188 190 178 172 169 160 156 162 166 167 164 161 161 164 167 170 175 172 173 183 174 175 185 185 183 183 184 171 158 155 167 174 169 164 169 185 198 202 221